Retour au catalogue

HERMES-5

ActifCommunicationsSSO
NORAD 63834·PAYLOAD·🇮🇹 Italy

Lancé Mar 15, 2025 depuis Vandenberg Space Force Base

Loading…

Prochains Passages (prochaines 24 heures)

TLE

FraisSource: Space-Track

Époque: Sep 14, 2026, 03:58 UTC

1 63834U 25052BQ  26257.16583947  .00005061  00000-0  17641-3 0  9997
2 63834  97.3836 151.0628 0003926 164.3037 195.8326 15.30088095 83553

Suivez HERMES-5 en temps réel avec AllMySat

Download on the App Store